[[{"header":{"parameterUnit":"m.s-1","parameterCategory":1,"la1":30.2991,"la2":30.254,"lo1":-89.0895,"lo2":-89.0444,"dy":0.0017,"dx":0.0017,"nx":28,"ny":28,"refTime":"2024-03-25T21:00:00:Z","depth":0,"parameterNumber":2,"parameterNumberName":"U-component_of_WINDS"},"data":[0,0,0,0,0,0,0,0,0,0,0,0,0,0,0,0,0,0,0,0,0,0,0,0,0,0,0,0,0,0,0,0,0,0,0,0,0,0,0,0,0,0,0,0,0,0,0,0,0,0,0,0,0,0,0,0,0,0,-1.086,-1.0861,0,-1.0983,-1.0984,-1.0985,-1.1035,-1.1035,-1.1034,-1.1034,-1.1161,-1.1165,-1.1168,0,0,0,0,0,0,0,0,0,0,0,0,0,-1.0667,-1.067,-1.0859,-1.0861,-1.0863,-1.0982,-1.0984,-1.0986,-1.1035,-1.1035,-1.1034,-1.1034,-1.116,-1.1164,-1.1169,0,0,0,0,0,0,0,0,0,0,0,0,0,-1.0767,-1.0672,-1.0859,-1.0901,-1.0906,-1.0982,-1.0984,-1.0986,-1.1035,-1.1035,-1.1034,-1.1034,-1.1158,-1.1164,-1.1169,-1.1212,0,0,-1.1186,-1.1188,0,0,0,0,0,0,0,0,-1.0761,-1.0774,-1.0894,-1.0899,-1.0904,-1.0993,-1.0963,-1.1062,-1.1035,-1.0986,-1.1034,-1.1033,-1.1106,-1.1115,-1.1139,-1.1218,-1.1224,-1.1186,-1.119,-1.1192,-1.1194,0,0,0,0,0,0,0,-1.0754,-1.0769,-1.0908,-1.0895,-1.0902,-1.0914,-1.0928,-1.0982,-1.1047,-1.099,-1.0994,-1.1008,-1.1108,-1.1134,-1.1143,-1.1225,-1.1186,-1.1191,-1.1195,-1.1197,-1.1345,-1.1346,0,0,0,0,0,0,-1.074,-1.0762,-1.0904,-1.0912,-1.083,-1.0918,-1.0933,-1.0965,-1.1046,-1.1058,-1.1008,-1.101,-1.1125,-1.1136,-1.1147,-1.1203,-1.1192,-1.1197,-1.12,-1.1345,-1.1345,-1.1346,0,0,0,0,0,0,-1.0736,-1.0752,-1.0899,-1.0838,-1.0858,-1.0922,-1.0957,-1.0968,-1.0993,-1.106,-1.1072,-1.1023,-1.1125,-1.114,-1.1196,-1.1208,-1.12,-1.1205,-1.1344,-1.1345,-1.1346,-1.1315,0,0,0,0,0,0,-1.073,-1.075,-1.0767,-1.0838,-1.0861,-1.0945,-1.0958,-1.097,-1.1003,-1.1006,-1.1077,-1.1088,-1.1126,-1.1187,-1.1201,-1.1216,-1.1209,-1.1343,-1.1344,-1.1345,-1.1315,-1.1315,-1.1314,0,0,0,0,0,-1.0723,-1.0754,-1.0768,-1.0785,-1.0884,-1.0946,-1.0959,-1.1002,-1.1003,-1.1021,-1.1064,-1.1086,-1.1204,-1.1192,-1.1209,-1.1225,-1.1342,-1.1344,-1.1345,-1.1315,-1.1315,-1.1314,0,0,0,0,0,0,-1.0683,-1.0764,-1.078,-1.0835,-1.0883,-1.0954,-1.0978,-1.1,-1.1049,-1.105,-1.1101,-1.1116,-1.1168,-1.1202,-1.1187,-1.1271,-1.1275,-1.128,-1.1247,-1.1247,-1.1246,-1.1237,-1.1214,0,0,0,0,0,-1.0681,-1.0725,-1.0793,-1.0835,-1.0858,-1.0913,-1.0942,-1.0971,-1.1023,-1.1043,-1.109,-1.114,-1.1188,-1.1219,-1.1268,-1.132,-1.1336,-1.1339,-1.1339,-1.1338,-1.1342,-1.1372,-1.1374,-1.1351,-1.1351,-1.1351,0,0,-1.0677,-1.0726,-1.0751,-1.0828,-1.0869,-1.0913,-1.093,-1.0976,-1.101,-1.1051,-1.1106,-1.1142,-1.1201,-1.1255,-1.1281,-1.1285,-1.1352,-1.134,-1.1339,-1.1343,-1.1373,-1.1376,-1.1377,-1.1352,-1.1352,-1.1352,0,0,-1.0692,-1.0733,-1.0773,-1.0813,-1.0873,-1.091,-1.0919,-1.0987,-1.1012,-1.1068,-1.11,-1.114,-1.1223,-1.1263,-1.1294,-1.1323,-1.1345,-1.1337,-1.1336,-1.1364,-1.1366,-1.1368,-1.1378,-1.1382,-1.1341,-1.1341,-1.1341,0,-1.0679,-1.0746,-1.079,-1.0835,-1.0868,-1.0906,-1.0946,-1.0983,-1.1056,-1.1078,-1.1081,-1.1185,-1.1228,-1.1292,-1.1298,-1.1323,-1.1335,-1.133,-1.1362,-1.1365,-1.1367,-1.1378,-1.1381,-1.1339,-1.134,-1.134,-1.134,0,-1.0728,-1.0774,-1.0798,-1.0868,-1.0904,-1.0946,-1.0996,-1.1027,-1.1052,-1.1088,-1.1144,-1.1196,-1.1256,-1.1273,-1.1298,-1.134,-1.1341,-1.1352,-1.1358,-1.1367,-1.1378,-1.1382,-1.1338,-1.1338,-1.1338,-1.1339,0,0,-1.0722,-1.0814,-1.0823,-1.0855,-1.0924,-1.0961,-1.1004,-1.1062,-1.1087,-1.1136,-1.1174,-1.1242,-1.1253,-1.1289,-1.1319,-1.1344,-1.1363,-1.1353,-1.1355,-1.1353,-1.1413,-1.1404,-1.1408,-1.1378,-1.1379,-1.1379,-1.1408,0,-1.0747,-1.0826,-1.0866,-1.0928,-1.0971,-1.1008,-1.1046,-1.1092,-1.1127,-1.1169,-1.1207,-1.1255,-1.1265,-1.1287,-1.1313,-1.1355,-1.1376,-1.1354,-1.1414,-1.1415,-1.1398,-1.1414,-1.1405,-1.1429,-1.1412,-1.1413,-1.1414,0,-1.0786,-1.0834,-1.09,-1.0964,-1.0984,-1.1017,-1.1073,-1.1112,-1.1165,-1.1189,-1.1228,-1.1257,-1.1304,-1.1305,-1.1371,-1.1355,-1.1381,-1.1405,-1.1407,-1.1415,-1.1415,-1.1422,-1.1438,-1.1442,-1.1421,-1.142,-1.142,0,-1.0776,-1.0857,-1.0907,-1.0933,-1.1008,-1.1031,-1.1063,-1.1116,-1.1148,-1.1197,-1.1218,-1.1271,-1.1301,-1.1341,-1.1384,-1.1381,-1.1445,-1.145,-1.1466,-1.1465,-1.1479,-1.1478,-1.15,-1.1495,-1.1495,-1.1495,-1.1495,0,-1.0799,-1.0838,-1.0903,-1.0934,-1.0979,-1.1024,-1.1067,-1.1103,-1.1149,-1.1188,-1.1222,-1.1257,-1.1311,-1.1353,-1.1387,-1.1436,-1.1449,-1.1469,-1.1478,-1.1467,-1.1464,-1.1485,-1.1485,-1.1496,-1.1496,-1.1496,-1.1496,0,-1.0795,-1.084,-1.0897,-1.0964,-1.0981,-1.1011,-1.1068,-1.11,-1.1135,-1.1183,-1.1197,-1.1254,-1.1305,-1.1351,-1.1419,-1.1442,-1.1492,-1.1502,-1.1474,-1.1478,-1.1492,-1.149,-1.1529,-1.1537,-1.1526,-1.1526,-1.1526,0,-1.0807,-1.0838,-1.0908,-1.0935,-1.0967,-1.1012,-1.1044,-1.109,-1.1122,-1.1185,-1.1208,-1.1262,-1.1307,-1.1387,-1.1434,-1.1486,-1.1499,-1.1509,-1.1507,-1.1494,-1.1499,-1.1497,-1.15,-1.1508,-1.1508,-1.1508,-1.1508,0,-1.0824,-1.0845,-1.089,-1.0943,-1.098,-1.1024,-1.1069,-1.109,-1.1144,-1.1179,-1.1231,-1.1266,-1.1335,-1.1388,-1.1445,-1.1479,-1.1503,-1.1508,-1.1515,-1.1504,-1.1486,-1.1496,-1.1473,-1.1507,-1.1507,-1.1508,-1.1508,-1.1508,-1.0829,-1.0858,-1.0911,-1.096,-1.0999,-1.104,-1.1072,-1.1112,-1.1156,-1.1215,-1.124,-1.1293,-1.1345,-1.1424,-1.1458,-1.15,-1.1505,-1.1514,-1.1517,-1.1518,-1.1516,-1.1478,-1.151,-1.1511,-1.1511,-1.1511,-1.1511,0,-1.0848,-1.0884,-1.0928,-1.099,-1.1028,-1.1046,-1.1097,-1.1128,-1.1174,-1.122,-1.1264,-1.1324,-1.1375,-1.1426,-1.1479,-1.1503,-1.1516,-1.1516,-1.1515,-1.1522,-1.1509,-1.1498,-1.1505,-1.1505,-1.1505,-1.1505,-1.1505,-1.1505,-1.0862,-1.0912,-1.0939,-1.1008,-1.1043,-1.1095,-1.1123,-1.116,-1.1198,-1.1263,-1.1305,-1.1338,-1.1386,-1.1443,-1.1491,-1.1504,-1.1523,-1.152,-1.1537,-1.1523,-1.1523,-1.1523,-1.1513,-1.1524,-1.1524,-1.1547,-1.1547,-1.1547]},{"header":{"parameterUnit":"m.s-1","parameterCategory":1,"la1":30.2991,"la2":30.254,"lo1":-89.0895,"lo2":-89.0444,"dy":0.0017,"dx":0.0017,"nx":28,"ny":28,"refTime":"2024-03-25T21:00:00:Z","depth":0,"parameterNumber":3,"parameterNumberName":"V-component_of_WINDS"},"data":[0,0,0,0,0,0,0,0,0,0,0,0,0,0,0,0,0,0,0,0,0,0,0,0,0,0,0,0,0,0,0,0,0,0,0,0,0,0,0,0,0,0,0,0,0,0,0,0,0,0,0,0,0,0,0,0,0,0,-5.1944,-5.1946,0,-5.2077,-5.2079,-5.208,-5.208,-5.2078,-5.2077,-5.2075,-5.2204,-5.2209,-5.2213,0,0,0,0,0,0,0,0,0,0,0,0,0,-5.1685,-5.169,-5.1944,-5.1946,-5.1947,-5.2077,-5.2079,-5.2081,-5.208,-5.2078,-5.2076,-5.2074,-5.2202,-5.2208,-5.2214,0,0,0,0,0,0,0,0,0,0,0,0,0,-5.1806,-5.1691,-5.1944,-5.1963,-5.1966,-5.2077,-5.2079,-5.2081,-5.2081,-5.2078,-5.2076,-5.2073,-5.22,-5.2207,-5.2215,-5.2313,0,0,-5.2238,-5.2241,0,0,0,0,0,0,0,0,-5.1799,-5.1815,-5.1959,-5.1962,-5.1966,-5.206,-5.2035,-5.2158,-5.2081,-5.2037,-5.2075,-5.2072,-5.2157,-5.2168,-5.2199,-5.2319,-5.2324,-5.2238,-5.2243,-5.2246,-5.2248,0,0,0,0,0,0,0,-5.179,-5.1809,-5.1996,-5.1961,-5.1965,-5.1964,-5.1978,-5.2058,-5.211,-5.2041,-5.2041,-5.2057,-5.2159,-5.2191,-5.2201,-5.2326,-5.2238,-5.2245,-5.225,-5.2252,-5.2536,-5.2539,0,0,0,0,0,0,-5.1779,-5.1802,-5.1992,-5.2,-5.1874,-5.197,-5.1986,-5.2032,-5.2109,-5.2118,-5.2059,-5.2057,-5.218,-5.2193,-5.2206,-5.2328,-5.2246,-5.2253,-5.2258,-5.2533,-5.2537,-5.254,0,0,0,0,0,0,-5.1773,-5.1796,-5.1987,-5.1902,-5.1926,-5.1978,-5.2029,-5.2036,-5.2069,-5.2123,-5.2131,-5.2084,-5.2178,-5.2195,-5.2287,-5.2332,-5.2257,-5.2263,-5.253,-5.2534,-5.2539,-5.2571,0,0,0,0,0,0,-5.1766,-5.1794,-5.1832,-5.1903,-5.1931,-5.2068,-5.2031,-5.204,-5.2082,-5.208,-5.2148,-5.2157,-5.2177,-5.2276,-5.2295,-5.2341,-5.2269,-5.2526,-5.2532,-5.2537,-5.2566,-5.2576,-5.2585,0,0,0,0,0,-5.1757,-5.1834,-5.1834,-5.1857,-5.198,-5.207,-5.2086,-5.211,-5.2086,-5.2125,-5.2161,-5.2154,-5.2325,-5.2286,-5.2307,-5.2356,-5.2523,-5.253,-5.2537,-5.2562,-5.2574,-5.2585,0,0,0,0,0,0,-5.1763,-5.1843,-5.1844,-5.1947,-5.2002,-5.207,-5.2119,-5.2122,-5.2183,-5.2178,-5.2204,-5.2219,-5.2312,-5.2343,-5.2298,-5.2456,-5.2421,-5.2432,-5.2433,-5.2445,-5.2454,-5.2444,-5.2276,0,0,0,0,0,-5.1777,-5.1846,-5.1911,-5.1995,-5.2023,-5.2067,-5.2107,-5.2122,-5.2179,-5.2201,-5.2243,-5.2297,-5.2363,-5.2405,-5.2469,-5.2571,-5.2586,-5.2615,-5.2625,-5.2632,-5.2641,-5.27,-5.2715,-5.2563,-5.2563,-5.2562,0,0,-5.1805,-5.1858,-5.1898,-5.1998,-5.2042,-5.2112,-5.2086,-5.2159,-5.2211,-5.2211,-5.2302,-5.2335,-5.2397,-5.2496,-5.2541,-5.2524,-5.2687,-5.2641,-5.2646,-5.2652,-5.2709,-5.2723,-5.2736,-5.2567,-5.2566,-5.2566,0,0,-5.1893,-5.1939,-5.2016,-5.2062,-5.2132,-5.2161,-5.218,-5.2248,-5.2272,-5.2364,-5.2367,-5.2427,-5.254,-5.2585,-5.2622,-5.2732,-5.2729,-5.2752,-5.2799,-5.2857,-5.2869,-5.2879,-5.292,-5.2934,-5.2761,-5.2761,-5.2761,0,-5.1918,-5.2025,-5.2054,-5.213,-5.2174,-5.2182,-5.2259,-5.2302,-5.2387,-5.2417,-5.2398,-5.2543,-5.2584,-5.2695,-5.2722,-5.2752,-5.2774,-5.2744,-5.2865,-5.2876,-5.2887,-5.2926,-5.2941,-5.2763,-5.2763,-5.2763,-5.2763,0,-5.2054,-5.2128,-5.2182,-5.2269,-5.2319,-5.2394,-5.2434,-5.2481,-5.2493,-5.2524,-5.2619,-5.267,-5.2746,-5.2773,-5.2783,-5.2886,-5.2874,-5.286,-5.2824,-5.2903,-5.294,-5.2955,-5.2767,-5.2766,-5.2765,-5.2765,0,0,-5.2146,-5.2252,-5.2271,-5.2312,-5.2392,-5.2449,-5.2526,-5.2603,-5.2644,-5.2703,-5.2768,-5.2866,-5.2855,-5.2897,-5.2913,-5.2963,-5.3049,-5.2943,-5.2945,-5.2962,-5.3168,-5.3179,-5.3196,-5.3049,-5.3052,-5.3054,-5.3163,0,-5.2243,-5.2383,-5.2413,-5.2533,-5.2603,-5.2614,-5.2681,-5.2737,-5.2769,-5.2832,-5.2866,-5.2935,-5.2914,-5.2941,-5.2991,-5.3028,-5.3091,-5.3021,-5.3109,-5.3112,-5.3094,-5.3215,-5.3225,-5.3326,-5.3178,-5.318,-5.3182,0,-5.2373,-5.2441,-5.2569,-5.2644,-5.2674,-5.2734,-5.281,-5.287,-5.2933,-5.2953,-5.3004,-5.3015,-5.3095,-5.3057,-5.3168,-5.312,-5.3158,-5.3182,-5.3186,-5.3195,-5.3152,-5.3228,-5.3359,-5.3374,-5.3205,-5.3203,-5.3201,0,-5.2429,-5.2552,-5.2646,-5.268,-5.2769,-5.2811,-5.285,-5.2911,-5.2957,-5.3022,-5.3053,-5.3125,-5.3164,-5.322,-5.325,-5.3219,-5.336,-5.3323,-5.3378,-5.3377,-5.3406,-5.3404,-5.3546,-5.343,-5.343,-5.3429,-5.3429,0,-5.2534,-5.2612,-5.2673,-5.273,-5.2819,-5.2854,-5.294,-5.2977,-5.3033,-5.3098,-5.311,-5.317,-5.3207,-5.3272,-5.3296,-5.3385,-5.3402,-5.342,-5.3425,-5.3419,-5.3417,-5.3444,-5.3438,-5.3434,-5.3433,-5.3432,-5.3431,0,-5.261,-5.2654,-5.2758,-5.2835,-5.2857,-5.2919,-5.2984,-5.304,-5.3074,-5.3156,-5.3177,-5.3229,-5.3307,-5.3344,-5.3438,-5.3455,-5.3557,-5.3557,-5.3536,-5.3539,-5.3592,-5.3587,-5.3756,-5.3781,-5.3648,-5.3649,-5.365,0,-5.2674,-5.2736,-5.2822,-5.2868,-5.2909,-5.2982,-5.3031,-5.3067,-5.3117,-5.3197,-5.3244,-5.3323,-5.3388,-5.3512,-5.3557,-5.363,-5.3633,-5.3687,-5.3643,-5.3636,-5.3635,-5.3631,-5.3638,-5.3695,-5.3696,-5.3697,-5.3698,0,-5.2783,-5.2804,-5.2875,-5.2955,-5.3014,-5.3078,-5.314,-5.3176,-5.3223,-5.3278,-5.3361,-5.3412,-5.3512,-5.359,-5.3668,-5.3705,-5.371,-5.3712,-5.3729,-5.3723,-5.3709,-5.3719,-5.3559,-5.3707,-5.3706,-5.3706,-5.3705,-5.3705,-5.2856,-5.2913,-5.2984,-5.3064,-5.3116,-5.3175,-5.3234,-5.3277,-5.3347,-5.3434,-5.3451,-5.3538,-5.3603,-5.3708,-5.3749,-5.3817,-5.3804,-5.3828,-5.3834,-5.384,-5.3844,-5.3699,-5.3831,-5.3831,-5.3831,-5.383,-5.383,0,-5.2967,-5.3015,-5.3088,-5.3178,-5.3242,-5.3245,-5.3315,-5.3367,-5.3445,-5.3507,-5.3573,-5.3669,-5.3746,-5.38,-5.3878,-5.3922,-5.3927,-5.3942,-5.3939,-5.3948,-5.385,-5.3828,-5.3937,-5.3937,-5.3937,-5.3937,-5.3937,-5.3937,-5.3032,-5.3129,-5.3159,-5.3282,-5.3329,-5.3418,-5.3458,-5.3513,-5.3564,-5.3671,-5.3737,-5.3773,-5.3832,-5.3916,-5.3987,-5.4001,-5.4029,-5.4045,-5.4058,-5.3965,-5.3954,-5.3943,-5.3923,-5.4051,-5.4051,-5.4151,-5.4152,-5.4153]}]]